"Pseudo-MPEC" for C0MR5G5

Created 2023 Nov 27 21:22:03 UT using Find_Orb

Click here for an explanation of pseudo-MPECs

 
 Astrometry: 
     C0MR5G5* C2023 11 15.34719103 46 08.749+17 55 45.55   ~BF97 23.56GVNEOCPV00
     C0MR5G5  C2023 11 15.35269603 46 08.195+17 55 45.30   ~BF97 23.64GVNEOCPV00
     C0MR5G5  C2023 11 15.35821703 46 07.669+17 55 44.47   ~BF97 21.93GVNEOCPV00
     C0MR5G5  C2023 11 15.36371603 46 07.165+17 55 44.62   ~BF97 22.93GVNEOCPV00
     C0MR5G5  C2023 11 15.38135103 46 05.406+17 55 43.30   ~BF9q 22.7 GVNEOCPH01
     C0MR5G5  C2023 11 15.38557103 46 05.000+17 55 43.09   ~BF9q 22.5 GVNEOCPH01
     C0MR5G5  C2023 11 18u0'#mPDTOUrJAstrometrycmdmXTW4-ud])=htlx!oE+mT[IL_f-F52
     C0MR5G5  C2023 11 18(k;y1O-,mDiJaredacted;WDS0U+p/@s[Z9gA-A\,,fm838[]S9(F52
     C0MR5G5  C2023 11 18a#(=Xgghb`#By?cu^1gjQZclick\?L=Z0^A3f^Fhere.L4pf7l@1F52
     C0MR5G5 DC2023 11 22/o7mZX729sQ?j-yUltB23h@9VjYH\yYkfornJ^))O;vHF;mS;HEi695
     C0MR5G5 DC2023 11 22DX3RoCCOkYNJKwucX9uT;Ao.td0t.U,0B^e[/W;][@40]:hPivl0695
     C0MR5G5 DC2023 11 22FT_0e3rt?]Wexplanation=[mL8b/t\x^?lMp\IFop_Z5rRck5Y#695

Station data:
(695) Kitt Peak  (N31.958395 W111.594670)  US/Arizona. Measurer S. Deen.
   3.5-m f/1.75 reflector + CCD0.9-m f/7.5 reflector + CCD4.0-m
   Ritchey-Chrétien + CCD0.61-m f/3.5 Schmidt + CCD2.3-m f/9 reflector + CCD.
(F52) Pan-STARRS 2, Haleakala  (N20.707382 W156.255910)  US/Hawaii.
   Observers J. Bulger, T. Dukes, T. Lowe, A. Schultz, M. Willman. Measurers
   K. Chambers, S. Chastel, T. de Boer, L. Denneau, J. Fairlamb, H.
   Flewelling, M. Huber, C.-C. Lin, E. Magnier, Y. Ramanjooloo, R. Wainscoat,
   R. Weryk. 1.8-m Ritchey-Chrétien + CCD.
(H01) Magdalena Ridge Observatory, Socorro  (N33.984833 W107.189333)  US/New
   Mexico.  Observers W. H. Ryan, E. V. Ryan. Measurer W. H. Ryan. 2.4-m
   f/8.9 reflector + CCD.
(V00) Kitt Peak-Bok  (N31.963125 W111.600190)  US/Arizona.  Observers T. A.
   Pruyne, B. M. Africano, E. J. Christensen, G. A. Farneth, D. C. Fuls, A.
   R. Gibbs, A. D. Grauer, H. Gröller, J. A. Johnson, R. A. Kowalski, S. M.
   Larson, G. J. Leonard, D. Rankin, R. L. Seaman, F. C. Shelly, K. W.
   Wierzchoś. 2.25-m reflector + 4x4K mosaic CCD.

Orbital elements:  C0MR5G5
   Perihelion 2023 May 21.84807 +/- 2.83 TT = 20:21:13 (JD 2460086.34807)
Epoch 2023 Nov 22.0 TT = JDT 2460270.5   Earth MOID: 0.1933   Ma: 0.0397
M  58.64316369 +/- 0.6              (J2000 ecliptic)             AutoNEOCP
n   0.31844990 +/- 0.00803          Peri.  242.02611 +/- 1.3
a   2.12377564 +/- 0.0357           Node    64.77347 +/- 0.31
e   0.4428422 +/- 0.0179            Incl.    5.86536 +/- 0.33
P   3.10                   H 21.21  G  0.15   U  9.5
q 1.18327802 +/- 0.018    Q 3.06427325 +/- 0.0894
From 12 observations 2023 Nov. 15-22; mean residual 0".16
Residuals in arcseconds: 
231115 V00  .09+  .18+    231115 H01  .03-  .06+    231118 F52  .17+  .12-    
231115 V00  .22-  .21+    231115 H01  .02-  .08+    231122 695  .16+  .18+    
231115 V00  .10-  .34-    231118 F52  .30-  .01+    231122 695  .03-  .11-    
231115 V00  .30+  .09+    231118 F52  .14+  .02+    231122 695  .15-  .17+    

Ephemerides (geocentric):
Date (UTC) HH   RA             Dec           delta  r     elong  mag " sig PA
---- --------  ------------   ------------  ------ ------ -----  --- --------
2023 11 27 21  03 27 52.758   +17 45 16.30  1.0780 2.0552 169.0 23.4 6.52  68
2023 11 27 22  03 27 49.485   +17 45 14.40  1.0783 2.0554 168.9 23.4 6.61  69
2023 11 27 23  03 27 46.216   +17 45 12.50  1.0786 2.0556 168.9 23.4 6.70  69
2023 11 28 00  03 27 42.949   +17 45 10.61  1.0790 2.0559 168.8 23.4 6.79  69
2023 11 28 01  03 27 39.686   +17 45 08.72  1.0793 2.0561 168.8 23.4 6.88  69
2023 11 28 02  03 27 36.426   +17 45 06.83  1.0796 2.0563 168.7 23.4 6.97  69
2023 11 28 03  03 27 33.169   +17 45 04.95  1.0799 2.0565 168.7 23.4 7.06  69
2023 11 28 04  03 27 29.915   +17 45 03.07  1.0803 2.0568 168.6 23.4 7.15  69
2023 11 28 05  03 27 26.664   +17 45 01.20  1.0806 2.0570 168.6 23.4 7.24  69
2023 11 28 06  03 27 23.417   +17 44 59.32  1.0809 2.0572 168.5 23.4 7.33  69
2023 11 28 07  03 27 20.173   +17 44 57.46  1.0813 2.0574 168.5 23.4 7.43  69
2023 11 28 08  03 27 16.931   +17 44 55.59  1.0816 2.0577 168.4 23.4 7.52  69
2023 11 28 09  03 27 13.693   +17 44 53.73  1.0819 2.0579 168.3 23.4 7.61  69
2023 11 28 10  03 27 10.459   +17 44 51.87  1.0823 2.0581 168.3 23.4 7.71  69
2023 11 28 11  03 27 07.227   +17 44 50.02  1.0826 2.0583 168.2 23.4 7.81  69
2023 11 28 12  03 27 03.999   +17 44 48.17  1.0829 2.0586 168.2 23.4 7.90  69
2023 11 28 13  03 27 00.773   +17 44 46.33  1.0833 2.0588 168.1 23.4 8.00  69
2023 11 28 14  03 26 57.551   +17 44 44.48  1.0836 2.0590 168.1 23.4 8.10  69
2023 11 28 15  03 26 54.333   +17 44 42.65  1.0839 2.0592 168.0 23.4 8.20  69
2023 11 28 16  03 26 51.117   +17 44 40.81  1.0843 2.0594 168.0 23.4 8.30  69
2023 11 28 17  03 26 47.905   +17 44 38.98  1.0846 2.0597 167.9 23.4 8.40  69
2023 11 28 18  03 26 44.696   +17 44 37.15  1.0849 2.0599 167.9 23.4 8.50  70
2023 11 28 19  03 26 41.490   +17 44 35.33  1.0853 2.0601 167.8 23.4 8.60  70
2023 11 28 20  03 26 38.287   +17 44 33.51  1.0856 2.0603 167.7 23.4 8.70  70
2023 11 28 21  03 26 35.088   +17 44 31.70  1.0859 2.0606 167.7 23.4 8.81  70
2023 11 28 22  03 26 31.892   +17 44 29.89  1.0863 2.0608 167.6 23.4 8.91  70
2023 11 28 23  03 26 28.699   +17 44 28.08  1.0866 2.0610 167.6 23.4 9.01  70
2023 11 29 00  03 26 25.509   +17 44 26.27  1.0870 2.0612 167.5 23.4 9.12  70
2023 11 29 01  03 26 22.323   +17 44 24.48  1.0873 2.0615 167.5 23.4 9.23  70
2023 11 29 02  03 26 19.140   +17 44 22.68  1.0876 2.0617 167.4 23.4 9.33  70
2023 11 29 03  03 26 15.960   +17 44 20.89  1.0880 2.0619 167.4 23.4 9.44  70
2023 11 29 04  03 26 12.783   +17 44 19.10  1.0883 2.0621 167.3 23.4 9.55  70
2023 11 29 05  03 26 09.610   +17 44 17.32  1.0887 2.0624 167.3 23.4 9.66  70
2023 11 29 06  03 26 06.440   +17 44 15.54  1.0890 2.0626 167.2 23.4 9.77  70
2023 11 29 07  03 26 03.273   +17 44 13.76  1.0893 2.0628 167.2 23.4 9.88  70
2023 11 29 08  03 26 00.110   +17 44 11.99  1.0897 2.0630 167.1 23.5 9.99  70
2023 11 29 09  03 25 56.950   +17 44 10.23  1.0900 2.0633 167.0 23.5 10.1  70
2023 11 29 10  03 25 53.793   +17 44 08.47  1.0904 2.0635 167.0 23.5 10.2  70
2023 11 29 11  03 25 50.640   +17 44 06.71  1.0907 2.0637 166.9 23.5 10.3  70
2023 11 29 12  03 25 47.489   +17 44 04.95  1.0911 2.0639 166.9 23.5 10.4  70
2023 11 29 13  03 25 44.343   +17 44 03.20  1.0914 2.0641 166.8 23.5 10.6  70
2023 11 29 14  03 25 41.199   +17 44 01.46  1.0918 2.0644 166.8 23.5 10.7  70
2023 11 29 15  03 25 38.059   +17 43 59.72  1.0921 2.0646 166.7 23.5 10.8  70
2023 11 29 16  03 25 34.922   +17 43 57.98  1.0924 2.0648 166.7 23.5 10.9  70
2023 11 29 17  03 25 31.789   +17 43 56.25  1.0928 2.0650 166.6 23.5 11.0  70
2023 11 29 18  03 25 28.658   +17 43 54.52  1.0931 2.0653 166.6 23.5 11.1  70
2023 11 29 19  03 25 25.532   +17 43 52.79  1.0935 2.0655 166.5 23.5 11.3  70
2023 11 29 20  03 25 22.408   +17 43 51.07  1.0938 2.0657 166.4 23.5 11.4  70